Flag for Norway Weather past 2 weeks in Longyearbyen, Svalbard, Norway

Now
45 °F

Sunny.


Feels Like: 43 °F
Forecast: 25 / 37 °F
Wind: 3 mph from Northwest

Location: Svalbard Lufthavn

Current Time: Aug 20, 2014 at 9:33:12 PM

Latest Report: Aug 20, 2014 at 8:50 PM


Visibility: 10 mi

Pressure: 29.92 "Hg

Humidity: 71%

Dew point: 36 °F

Location of LongyearbyenLocation

Historic Weather in Longyearbyen — Graph

°F

Longyearbyen temperature yesterday

Maximum temperature yesterday: 45 °F (at 9:50 AM)
Minimum temperature yesterday: 39 °F (at 2:50 AM)
Average temperature yesterday: 43 °F

Past Weeks' High & Low Weather Summary

 TemperatureHumidityPressure
High50 °F (Aug 6, 12:50 PM)100% (Aug 7, 9:50 PM)30.15 "Hg (Aug 7, 9:50 PM)
Low36 °F (Aug 20, 3:50 AM)43% (Aug 13, 2:50 PM)29.71 "Hg (Aug 13, 3:50 PM)
Average44 °F72%29.92 "Hg
* Reported Aug 5 7:57 PM — Aug 20 7:50 PM, Longyearbyen, Weather by CustomWeather, © 2014

Note: Actual official high and low records may vary slightly from our data, if they occured in-between our weather recording intervals... More about our weather records

Advertising

Longyearbyen weather history for previous 24 hours

 ConditionsComfort  
Time TempWeatherWind HumidityBarometerVisibility
7:50 PM
Aug 20
45 °FSunny.5 mph71%29.92 "Hg10 mi
6:50 PM45 °FSunny.5 mph71%29.92 "Hg10 mi
4:50 PM43 °FSunny.3 mph71%29.95 "Hg10 mi
3:50 PM43 °FPassing clouds.5 mph76%29.95 "HgN/A
2:50 PM43 °FPartly sunny.5 mph76%29.95 "HgN/A
1:50 PM41 °FScattered clouds.5 mph76%29.95 "HgN/A
12:50 PM43 °FPassing clouds.3 mph71%29.95 "HgN/A
11:50 AM41 °FPassing clouds.3 mph76%29.95 "HgN/A
10:50 AM41 °FScattered clouds.5 mph76%29.95 "HgN/A
9:50 AM39 °FPassing clouds.3 mph81%29.95 "HgN/A
8:50 AM41 °FScattered clouds.1 mph76%29.95 "HgN/A
7:50 AM37 °FScattered clouds.1 mph87%29.95 "HgN/A
6:50 AM36 °FScattered clouds.3 mph87%29.95 "HgN/A
5:50 AM37 °FPassing clouds.5 mph81%29.95 "HgN/A
4:50 AM36 °FSunny.6 mph87%29.95 "Hg10 mi
3:50 AM36 °FSunny.7 mph81%29.95 "Hg10 mi
2:50 AM37 °FSunny.8 mph81%29.95 "Hg10 mi
1:50 AM37 °FPassing clouds.9 mph81%29.95 "HgN/A
12:50 AM39 °FSunny.9 mph75%29.95 "Hg10 mi
11:50 PM
Aug 19
39 °FSunny.9 mph75%29.95 "Hg10 mi
10:50 PM41 °FSunny.1 mph70%29.92 "Hg10 mi
9:50 PM43 °FPassing clouds.9 mph71%29.92 "HgN/A
Weather by CustomWeather, © 2014

See weather overviewHow to use our weather pages